Location: Newark
(45.8833°N, 13.5000°E)
Time: 20:27:03
(UTC+00:00)

X-37B - Pass Details

Date: 02 October 2020
Orbit: 382 x 392 km, 45.0° (Epoch: 15 October)

Event Time Altitude Azimuth Distance (km) Brightness Sun altitude
Rises 17:33:48 0° 200° (SSW) 2,253 4.7 -9.6°
Reaches altitude 10° 17:37:02 10° 164° (SSE) 1,401 3.2 -10.1°
Maximum altitude 17:38:05 11° 145° (SE) 1,327 2.9 -10.3°
Enters shadow 17:38:42 11° 133° (SE) 1,353 2.9 -10.4°
